This is the latest recevied weather packets stored in our database for station/object KM4LTG. If no packets are shown the sender has not sent any weather packets the latest 10 day(s).
| Time | Temp. | Humidity | Pressure | Rain* | Wind** | Luminosity | Snow |
|---|---|---|---|---|---|---|---|
| 1777939930 | 25° C | 57% | 1015.4 hPa | 0 mm | - | - | - |
| 1777939660 | 25° C | 56% | 1015.2 hPa | 0 mm | - | - | - |
| 1777939385 | 25° C | 56% | 1015.1 hPa | 0 mm | - | - | - |
| 1777939100 | 25° C | 56% | 1014.9 hPa | 0 mm | - | - | - |
| 1777938828 | 25.56° C | 56% | 1014.9 hPa | 0 mm | - | - | - |
| 1777938588 | 25.56° C | 56% | 1014.8 hPa | 0 mm | - | - | - |
| 1777938340 | 25.56° C | 56% | 1014.8 hPa | 0 mm | - | - | - |
| 1777938065 | 25.56° C | 55% | 1014.7 hPa | 0 mm | - | - | - |
| 1777937765 | 25.56° C | 55% | 1014.6 hPa | 0 mm | - | - | - |
| 1777937500 | 26.11° C | 54% | 1014.7 hPa | 0 mm | - | - | - |
| 1777937220 | 26.11° C | 54% | 1014.5 hPa | 0 mm | - | - | - |
| 1777936920 | 26.67° C | 53% | 1014.6 hPa | 0 mm | - | - | - |
| 1777936640 | 26.67° C | 54% | 1014.4 hPa | 0 mm | - | - | - |
| 1777936395 | 26.67° C | 53% | 1014.5 hPa | 0 mm | - | - | - |
| 1777936110 | 26.67° C | 54% | 1014.4 hPa | 0 mm | - | - | - |
| 1777935825 | 26.67° C | 53% | 1014.6 hPa | 0 mm | - | - | - |
| 1777935550 | 27.22° C | 52% | 1014.4 hPa | 0 mm | - | - | - |
| 1777935250 | 27.78° C | 51% | 1014.4 hPa | 0 mm | - | - | - |
| 1777934995 | 27.78° C | 51% | 1014.5 hPa | 0 mm | - | - | - |
| 1777934705 | 27.78° C | 52% | 1014.4 hPa | 0 mm | - | - | - |
| 1777934450 | 27.78° C | 52% | 1014.4 hPa | 0 mm | - | - | - |
| 1777934190 | 27.78° C | 51% | 1014.5 hPa | 0 mm | - | - | - |
| 1777933930 | 28.33° C | 50% | 1014.3 hPa | 0 mm | - | - | - |
| 1777933680 | 29.44° C | 48% | 1014.5 hPa | 0 mm | - | - | - |
| 1777933432 | 28.89° C | 46% | 1014.5 hPa | 0 mm | - | - | - |
* Rain latest hour (hover to see other rain measurements)
** Current wind speed in m/s (hover to see current wind gust speed)